When you browse on this site, cookies collect data to enhance your experience and personalize the content and advertising you see.
Visit our Privacy Policy to learn more. By continuing to use the site, you agree to this use of cookies and data.
  • In Hungary
  • List of Countries
  • For 7 days
  • Water Temperature
  • Weather Map
  • News
  • Weather Widgets
  • user-avatar
    Login

    Hourly Weather Zaventem

    Today, 11 December, Wednesday

    Time Temperature Precipitation Wind Pressure Humidity
    00:00 +3°C° 0 mm 10 mps 755 mmHg 72%
    01:00 +3°C° 0.1 mm 9 mps 754 mmHg 77%
    02:00 +4°C° 0.1 mm 8 mps 754 mmHg 81%
    03:00 +4°C° 0.1 mm 7 mps 754 mmHg 86%
    04:00 +4°C° 0.1 mm 6 mps 754 mmHg 87%
    05:00 +5°C° 0.1 mm 5 mps 754 mmHg 88%
    06:00 +5°C° 0.1 mm 4 mps 754 mmHg 89%
    07:00 +5°C° 0 mm 3 mps 753 mmHg 87%
    08:00 +5°C° 0 mm 3 mps 753 mmHg 85%
    09:00 +5°C° 0 mm 3 mps 753 mmHg 83%
    10:00 +7°C° 0 mm 3 mps 752 mmHg 80%
    11:00 +7°C° 0 mm 3 mps 752 mmHg 78%
    12:00 +7°C° 0 mm 3 mps 751 mmHg 76%
    13:00 +7°C° 0 mm 3 mps 751 mmHg 77%
    14:00 +7°C° 0 mm 3 mps 750 mmHg 79%
    15:00 +5°C° 0 mm 3 mps 750 mmHg 81%
    16:00 +5°C° 0 mm 3 mps 750 mmHg 82%
    17:00 +4°C° 0 mm 4 mps 749 mmHg 84%
    18:00 +4°C° 0 mm 4 mps 749 mmHg 85%
    19:00 +4°C° 0 mm 4 mps 749 mmHg 84%
    20:00 +3°C° 0 mm 5 mps 749 mmHg 83%
    21:00 +2°C° 0 mm 5 mps 748 mmHg 82%
    22:00 +2°C° 0.1 mm 5 mps 748 mmHg 83%
    23:00 +4°C° 0.1 mm 4 mps 748 mmHg 85%

    Tomorrow, 12 December, Thursday

    Time Temperature Precipitation Wind Pressure Humidity
    00:00 +4°C° 0.1 mm 4 mps 748 mmHg 86%
    01:00 +3°C° 0 mm 4 mps 748 mmHg 85%
    02:00 +3°C° 0 mm 4 mps 748 mmHg 84%
    03:00 +3°C° 0 mm 4 mps 748 mmHg 84%
    04:00 +1°C° 0 mm 4 mps 748 mmHg 84%
    05:00 +1°C° 0 mm 4 mps 748 mmHg 84%
    06:00 0°C° 0 mm 4 mps 749 mmHg 84%
    07:00 0°C° 0 mm 4 mps 749 mmHg 84%
    08:00 0°C° 0 mm 5 mps 749 mmHg 83%
    09:00 +1°C° 0 mm 5 mps 749 mmHg 83%
    10:00 +1°C° 0 mm 5 mps 748 mmHg 80%
    11:00 +2°C° 0 mm 6 mps 748 mmHg 77%
    12:00 +3°C° 0 mm 6 mps 747 mmHg 74%
    13:00 +3°C° 0 mm 6 mps 746 mmHg 74%
    14:00 +3°C° 0 mm 6 mps 745 mmHg 75%
    15:00 +2°C° 0 mm 7 mps 744 mmHg 75%
    16:00 +2°C° 0 mm 7 mps 742 mmHg 75%
    17:00 +1°C° 0 mm 8 mps 740 mmHg 76%
    18:00 +1°C° 0 mm 8 mps 739 mmHg 76%
    19:00 +1°C° 0.5 mm 9 mps 736 mmHg 79%
    20:00 +1°C° 0.5 mm 10 mps 734 mmHg 83%
    21:00 +1°C° 0.5 mm 11 mps 732 mmHg 86%
    22:00 +2°C° 1.5 mm 11 mps 730 mmHg 87%
    23:00 +5°C° 1.5 mm 10 mps 728 mmHg 87%

    Day after tomorrow, 13 December, Friday

    Time Temperature Precipitation Wind Pressure Humidity
    00:00 +6°C° 1.5 mm 9 mps 727 mmHg 88%
    01:00 +5°C° 0.4 mm 9 mps 726 mmHg 86%
    02:00 +5°C° 0.4 mm 8 mps 726 mmHg 84%
    03:00 +5°C° 0.4 mm 7 mps 725 mmHg 82%
    04:00 +4°C° 0.4 mm 7 mps 725 mmHg 82%
    05:00 +4°C° 0.4 mm 8 mps 726 mmHg 81%
    06:00 +2°C° 0.4 mm 8 mps 726 mmHg 80%
    07:00 +2°C° 0.1 mm 8 mps 726 mmHg 82%
    08:00 +2°C° 0.1 mm 9 mps 727 mmHg 83%
    09:00 +2°C° 0.1 mm 9 mps 728 mmHg 84%
    10:00 +2°C° 1.2 mm 9 mps 728 mmHg 86%
    11:00 +2°C° 1.2 mm 10 mps 729 mmHg 88%
    12:00 +2°C° 1.2 mm 10 mps 729 mmHg 90%
    13:00 +2°C° 0.6 mm 10 mps 730 mmHg 88%
    14:00 +3°C° 0.6 mm 9 mps 731 mmHg 86%
    15:00 +3°C° 0.6 mm 9 mps 732 mmHg 84%
    16:00 +3°C° 0.2 mm 9 mps 733 mmHg 83%
    17:00 +4°C° 0.2 mm 8 mps 734 mmHg 83%
    18:00 +5°C° 0.2 mm 7 mps 735 mmHg 82%
    19:00 +4°C° 0.1 mm 7 mps 736 mmHg 80%
    20:00 +4°C° 0.1 mm 7 mps 736 mmHg 79%
    21:00 +4°C° 0.1 mm 6 mps 737 mmHg 77%
    22:00 +4°C° 0.2 mm 7 mps 736 mmHg 80%
    23:00 +4°C° 0.2 mm 8 mps 736 mmHg 83%

    14 December, Saturday

    Time Temperature Precipitation Wind Pressure Humidity
    00:00 +2°C° 0.2 mm 8 mps 736 mmHg 86%
    01:00 +5°C° 0.5 mm 9 mps 735 mmHg 81%
    02:00 +6°C° 0.5 mm 11 mps 734 mmHg 76%
    03:00 +7°C° 0.5 mm 12 mps 733 mmHg 71%
    04:00 +6°C° 0 mm 11 mps 734 mmHg 70%
    05:00 +6°C° 0 mm 10 mps 735 mmHg 69%
    06:00 +5°C° 0 mm 10 mps 736 mmHg 69%
    07:00 +3°C° 0 mm 9 mps 737 mmHg 67%
    08:00 +4°C° 0 mm 8 mps 738 mmHg 66%
    09:00 +4°C° 0 mm 8 mps 739 mmHg 64%
    10:00 +4°C° 0.4 mm 7 mps 739 mmHg 71%
    11:00 +4°C° 0.4 mm 7 mps 739 mmHg 77%
    12:00 +3°C° 0.4 mm 7 mps 739 mmHg 84%
    13:00 +4°C° 0.2 mm 7 mps 740 mmHg 78%
    14:00 +4°C° 0.2 mm 8 mps 741 mmHg 71%
    15:00 +5°C° 0.2 mm 9 mps 741 mmHg 65%
    16:00 +4°C° 0 mm 8 mps 742 mmHg 67%
    17:00 +3°C° 0 mm 7 mps 743 mmHg 68%
    18:00 +3°C° 0 mm 6 mps 744 mmHg 70%
    19:00 +3°C° 0 mm 6 mps 745 mmHg 73%
    20:00 +3°C° 0 mm 7 mps 745 mmHg 76%
    21:00 +2°C° 0 mm 7 mps 745 mmHg 79%
    22:00 +2°C° 0 mm 7 mps 745 mmHg 81%
    23:00 +2°C° 0 mm 6 mps 745 mmHg 83%

    15 December, Sunday

    Time Temperature Precipitation Wind Pressure Humidity
    00:00 +2°C° 0 mm 6 mps 745 mmHg 84%
    01:00 +3°C° 0.1 mm 7 mps 743 mmHg 84%
    02:00 +3°C° 0.1 mm 7 mps 742 mmHg 85%
    03:00 +4°C° 0.1 mm 8 mps 741 mmHg 85%
    04:00 +5°C° 0.3 mm 9 mps 740 mmHg 84%
    05:00 +6°C° 0.3 mm 11 mps 739 mmHg 83%
    06:00 +5°C° 0.3 mm 12 mps 738 mmHg 82%
    07:00 +5°C° 0.2 mm 12 mps 740 mmHg 76%
    08:00 +4°C° 0.2 mm 12 mps 742 mmHg 69%
    09:00 +3°C° 0.2 mm 12 mps 743 mmHg 63%
    10:00 +4°C° 0 mm 11 mps 744 mmHg 64%
    11:00 +4°C° 0 mm 11 mps 746 mmHg 65%
    12:00 +6°C° 0 mm 10 mps 747 mmHg 66%
    13:00 +6°C° 0 mm 9 mps 747 mmHg 66%
    14:00 +5°C° 0 mm 9 mps 748 mmHg 66%
    15:00 +5°C° 0 mm 8 mps 748 mmHg 67%
    16:00 +5°C° 0 mm 8 mps 749 mmHg 68%
    17:00 +5°C° 0 mm 8 mps 750 mmHg 68%
    18:00 +4°C° 0 mm 8 mps 750 mmHg 69%
    19:00 +4°C° 0 mm 8 mps 751 mmHg 71%
    20:00 +4°C° 0 mm 8 mps 751 mmHg 72%
    21:00 +4°C° 0 mm 8 mps 752 mmHg 74%
    22:00 +4°C° 0 mm 7 mps 752 mmHg 75%
    23:00 +4°C° 0 mm 7 mps 752 mmHg 77%

    16 December, Monday

    Time Temperature Precipitation Wind Pressure Humidity
    00:00 +4°C° 0 mm 7 mps 752 mmHg 78%
    01:00 +4°C° 0 mm 6 mps 753 mmHg 80%
    02:00 +4°C° 0 mm 6 mps 753 mmHg 82%
    03:00 +3°C° 0 mm 6 mps 753 mmHg 83%
    04:00 +3°C° 0 mm 5 mps 753 mmHg 84%
    05:00 +4°C° 0 mm 4 mps 753 mmHg 85%
    06:00 +4°C° 0 mm 4 mps 754 mmHg 86%
    07:00 +4°C° 0 mm 4 mps 754 mmHg 86%
    08:00 +5°C° 0 mm 4 mps 754 mmHg 86%
    09:00 +5°C° 0 mm 5 mps 754 mmHg 86%
    10:00 +6°C° 0 mm 5 mps 754 mmHg 83%
    11:00 +6°C° 0 mm 5 mps 754 mmHg 79%
    12:00 +7°C° 0 mm 5 mps 753 mmHg 76%
    13:00 +7°C° 0 mm 5 mps 753 mmHg 79%
    14:00 +7°C° 0 mm 5 mps 752 mmHg 81%
    15:00 +7°C° 0 mm 4 mps 752 mmHg 83%
    16:00 +6°C° 0.1 mm 4 mps 751 mmHg 85%
    17:00 +6°C° 0.1 mm 4 mps 751 mmHg 87%
    18:00 +6°C° 0.1 mm 4 mps 750 mmHg 89%
    19:00 +7°C° 0.7 mm 4 mps 750 mmHg 91%
    20:00 +8°C° 0.7 mm 3 mps 750 mmHg 93%
    21:00 +8°C° 0.7 mm 3 mps 749 mmHg 95%
    22:00 +8°C° 1.1 mm 3 mps 749 mmHg 95%
    23:00 +8°C° 1.1 mm 3 mps 749 mmHg 96%
    Show more